Location: Dehesa de la Cepeda
(40.6574°N, 4.3013°W)
Time: 13:26:47
(UTC+00:00)

Transit 2A Rocket - Pass Details

Date: 01 August 2021
Orbit: 586 x 917 km, 66.7° (Epoch: 27 September)

Event Time Altitude Azimuth Distance (km) Brightness Sun altitude
Rises 22:28:54 0° 335° (NNW) 3,275 9.6 -25.8°
Reaches altitude 10° 22:31:21 10° 342° (NNW) 2,393 8.5 -26.0°
Maximum altitude 22:36:41 46° 55° (NE) 1,137 5.8 -26.5°
Enters shadow 22:37:22 44° 75° (ENE) 1,176 5.8 -26.6°
